Погода в Косицком

Россия / Новгородская область     58°28′29″N   30°27′14″E
темп.,
°C
ветер,
м/с
пор.,
м/с
влажн.,
%
обл.,
%
осадки,
мм/ч
давл.,
гПа
погр.,
м
6 мая, чт
чт600:00+6юв3109699 0.0 1001341
03:00+4вюв3799100 0.4 999203
06:00+5ссв1199100 2.8 99628
09:00+5ссз24100100 4.4 993177
12:00+5зсз4896100 9.9 992692
15:00+8зюз4890100 11.4 9931031
18:00+7юз51188100 1.8 9941074
21:00+5юз61294100 2.1 996939
7 мая, пт
пт700:00+5юз61289100 0.1 9971226
03:00+4юз61397100 0.3 9991086
06:00+4юз51296100 0.1 1000999
09:00+4юз5119597 0.3 1002877
12:00+7юз5980100 0.4 10031230
15:00+8юз597298 0.7 10041330
18:00+8юз476986 0.3 10051061
21:00+5ю2284100 0.3 100514
8 мая, сб
сб800:00+5вюв2281100 0.0 100445
03:00+4св2491100 0.2 100298
06:00+5с3797100 2.9 1000751
09:00+4с3798100 6.5 1000555
12:00+4с4898100 2.8 1000839
15:00+5ссз4998100 4.8 1001978
18:00+4сз61196100 2.1 1003959
21:00+4зсз61295100 2.4 1004887
9 мая, вс
вс900:00+4зсз61392100 0.0 1006987
03:00+2з5149074 0.0 1009531
06:00+1з514880 0.0 1012544
09:00+6зсз510610 0.0 1015971
12:00+10з58405 0.0 10171835
15:00+12зюз4641100 0.0 10182187
18:00+11ююз4750100 0.0 10191083
21:00+6ююз267897 0.0 1020128
10 мая, пн
пн1000:00+5ю288878 0.0 1021169
03:00+4ю31185100 0.0 1021260
06:00+6ю41489100 0.4 1021621
09:00+8ююз41190100 0.9 1021592
12:00+13ююз497656 0.0 1022658
15:00+19юз585490 0.0 10211436
18:00+18юз4863100 0.0 10221177
21:00+14ю41278100 0.0 1022422